Location: Beuerbach
(48.1459°N, 10.9174°E)
Time: 20:56:39
(UTC+00:00)

Cosmos 2082 Rocket - Pass Details

Date: 23 May 2024
Orbit: 832 x 853 km, 71.0° (Epoch: 14 June)

Event Time Altitude Azimuth Distance (km) Brightness Sun altitude
Exits shadow 00:07:02 39° 191° (SSW) 1,255 2.6 -20.2°
Maximum altitude 00:09:13 76° 115° (ESE) 884 2.2 -20.1°
Drops below altitude 10° 00:14:57 10° 30° (NNE) 2,492 5.8 -19.8°
Sets 00:17:24 0° 29° (NNE) 3,431 6.8 -19.7°
